星链-11657 (STARLINK-11657)

导读 | 豆包AI

STARLINK-11657是美国SpaceX星链星座的卫星成员,于2025年4月13日成功发射。星链计划旨在构建全球卫星互联网星座,为全球提供覆盖偏远地区的高速网络服务。该卫星延续星链设计,承担低轨通信任务,依托一箭多星发射模式,推进星座组网进程,助力全球互联网络覆盖布局。

基本信息
目录编号:
63558
目录名称:
STARLINK-11657
国际标识:
2025-075L
轨道中心:
EARTH
卫星名称:
星链-11657
卫星全名:
星链-11657 (STARLINK-11657)
卫星状态:
在轨 (已飞行384 天)
发射日期:
2025-04-13 UTC
国别 :
美国 (US)
星等 :
--
轨道信息
数据来源 国际轨道数据
星历时间: 2026-05-02T12:50:09+0800
5小时前
查看轨道信息
半长轴: 6734.321km
偏心率: 0.000357
轨道倾角: 43.000°
近地点辐角 288.598°
升交点赤经 191.338°
平近点角 71.450°
近地点: 353.779km
远地点: 358.589km
周期: 91.664分钟
每日圈数: 15.709491
详细信息
固有亮度:
5
最大亮度:
2.5
卫星平台:
Starlink V1.0
覆盖范围:
全球
运营商:
太空探索技术公司
运营商所在国:
美国
制造商(研发单位):
太空探索技术公司
制造商所在国:
美国
使用方式:
暂无
卫星简介
Starlink 计划是 SpaceX 推出的全球卫星互联网项目,通过发射低轨道卫星,为全球尤其是偏远地区提供高速、低延迟的互联网服务。自 2019 年起,Starlink 已部署数千颗卫星,旨在缩小全球数字鸿沟,推动互联网普及。该项目还为军事、航空等行业提供通信支持,带来广泛经济效益。
2D轨道图
3D轨道图
轨道高度分析图
轨道倾角分析图
轨道综合分析图
查看轨道综合分析图